ARIANE 2 DEB, 28570

Orbit data source: Space-Track

ARIANE 2 DEB, 28570 is space debris in HEO originally from a launch on Fri, 27 Jan 1989 UTC launched from the French Guiana (FRGUI). Debris objects in space refer to the collection of defunct objects orbiting the Earth. Examples of debris include non-operational satellites, rocket bodies, and fragments generated from explosions, collisions, or faulty payload assembly.

Loading next visibility...
ARIANE 2 DEB details
Identifier
28570, 1989-006AM
Orbit
HEO
Last TLE update12 hours ago
Origin
Flag of FRArianespace (FR)
ManufacturerEADS/LV
MissionSpacecraft
Bus & MotorUnknown
MassUnknown
Launch date (UTC)
1989-01-27 (36 years ago)
Launch vehicleUnknown
Launch site
French Guiana (FRGUI)
Object type
Payload
Rocket body
Debris
Shape & HBRUnknown
Radar Cross SectionMedium (>0.1 m² and <1 m²)

Expand to show TLE details & history

TLE from 12 hours ago
0 ARIANE 2 DEB
1 28570U 89006AM  25018.52849745  .00002085  00000-0  20245-1 0  9994
2 28570   7.6925 342.2548 7148243 290.6536 278.6185  2.29625561177922
Epoch: 2025-01-18T12:41Z
Definitive object data (Epoch: 2025-01-18T12:41:02.179Z)
Latitude5.12206°
Longitude172.42725°
Altitude25,977.902 km
Speed2.866 km/s
True Right ascension08h 03m 27s
True Declination5° 06' 55"
Sunlit
Object was in daylight at TLE epoch
Visualization TLE readout
Latitude1.24816°
Longitude-155.4705°
Altitude12,158.087 km
Speed5.156 km/s
Apparent Right ascension10h 50m 34s
Apparent Declination-9° 26' 42"
Sunlit
Object is in daylight
Visualization observer readout
Local Sidereal Time01:28:30
Azimuth59.966° ENE
Elevation-43.568°
Doppler factor1
Orbital elements
Apogee altitude35,248.117 km
Perigee altitude544.319 km
Semi-major axis24,274.355 km
Eccentricity0.7148243
Inclination7.6925°
RAAN342.2548°
Arg. of periapsis290.6536°
True anomaly207.71522°
Mean anomaly278.6185°
Eccentric anomaly242.342°
Mean motion0.57388 °/min
BSTAR0.020245
Orbital period627.31 mins
Loading maneuver chart data...
Loading historical data...
Loading historical data...
Loading historical data...
Loading historical data...
Loading historical data...
Loading historical data...
Loading historical data...

ARIANE 2 DEB Visibility forecast

Observer location: undefined°, undefined

Span
Click to sort rows by Start time (UTC) header in descending order
Start Az.
Max El. time (UTC)
Max El. Az.
Max El.
End time (UTC)
End Az.
574 mins2025-01-19 02:00:19.484Z231.289° WSW2025-01-19 04:34:19.484Z195.19° SSW37.681°2025-01-19 11:34:19.484Z174.585° S
109 mins2025-01-19 22:45:19.484Z187.427° SSW2025-01-20 00:34:19.484Z121.293° SE27.814°2025-01-20 00:34:19.484Z121.293° SE
|